^^
B2 Weather Station Historical Data
Daily Summary for June 28, 2019 Units:  English    Metric   Both
Daily Weekly Monthly Yearly Custom
  High: Low: Average:
Temperature: 91.1 °F 69.9 °F 80.9 °F
Dew Point: 75.6 °F 67.3 °F 70.2 °F
Humidity: 93% 49% 72%
Wind Speed: 16.1mph 0mph 5.1mph
Wind Gust: 9.9mph - -
Wind- - SSW
Pressure: 30.14 in 30.00 in -
Precipitation: 0 in    
Historical Graphs
 
 
Tabular Data for June 28, 2019
Time Temperature Dew Point Pressure Wind Wind Speed Wind Gust Humidity Rainfall Rate (Hourly) solar
00:04 70.4 °F 67.3 °F 30.12 in Calm     90% 0 in 0.00 W/m2
00:09 70.4 °F 67.6 °F 30.12 in Calm     91% 0 in 0.00 W/m2
00:14 70.5 °F 67.7 °F 30.12 in Calm     91% 0 in 0.00 W/m2
00:19 70.5 °F 67.7 °F 30.12 in Calm     91% 0 in 0.00 W/m2
00:24 70.6 °F 68.2 °F 30.11 in Calm     92% 0 in 0.00 W/m2
00:29 70.6 °F 68.2 °F 30.11 in Calm     92% 0 in 0.00 W/m2
00:34 70.7 °F 68.3 °F 30.11 in Calm     92% 0 in 0.00 W/m2
00:39 70.8 °F 68.4 °F 30.11 in Calm   1.2 mph 92% 0 in 0.00 W/m2
00:45 70.9 °F 68.5 °F 30.11 in Calm     92% 0 in 0.00 W/m2
00:49 70.8 °F 68.4 °F 30.10 in SE 4.6 mph 0.6 mph 92% 0 in 0.00 W/m2
00:54 70.8 °F 68.7 °F 30.10 in Calm     93% 0 in 0.00 W/m2
00:59 70.8 °F 68.7 °F 30.10 in Calm   0.6 mph 93% 0 in 0.00 W/m2
01:04 70.8 °F 68.7 °F 30.10 in Calm     93% 0 in 0.00 W/m2
01:09 70.7 °F 68.6 °F 30.10 in Calm     93% 0 in 0.00 W/m2
01:14 70.7 °F 68.6 °F 30.10 in Calm     93% 0 in 0.00 W/m2
01:19 70.6 °F 68.2 °F 30.10 in Calm     92% 0 in 0.00 W/m2
01:24 70.3 °F 68.2 °F 30.10 in Calm     93% 0 in 0.00 W/m2
01:29 70.1 °F 68 °F 30.09 in Calm     93% 0 in 0.00 W/m2
01:34 70 °F 67.9 °F 30.09 in Calm     93% 0 in 0.00 W/m2
01:39 69.9 °F 67.8 °F 30.09 in Calm     93% 0 in 0.00 W/m2
01:44 69.9 °F 67.8 °F 30.09 in Calm     93% 0 in 0.00 W/m2
01:49 69.9 °F 67.8 °F 30.09 in Calm     93% 0 in 0.00 W/m2
01:54 69.9 °F 67.8 °F 30.09 in Calm     93% 0 in 0.00 W/m2
01:59 69.9 °F 67.8 °F 30.08 in Calm     93% 0 in 0.00 W/m2
02:04 70 °F 67.9 °F 30.08 in Calm   1 mph 93% 0 in 0.00 W/m2
02:09 70.4 °F 68.3 °F 30.08 in South 1.2 mph 0.7 mph 93% 0 in 0.00 W/m2
02:14 70.9 °F 68.5 °F 30.08 in South 1.2 mph   92% 0 in 0.00 W/m2
02:19 71.3 °F 68.5 °F 30.08 in South 5 mph 2.1 mph 91% 0 in 0.00 W/m2
02:24 71.8 °F 68.7 °F 30.08 in SSW 3.5 mph 3.8 mph 90% 0 in 0.00 W/m2
02:29 72.2 °F 68.8 °F 30.08 in SSW 5.8 mph 3.4 mph 89% 0 in 0.00 W/m2
02:34 72.7 °F 68.9 °F 30.08 in SSW 6.9 mph 2.2 mph 88% 0 in 0.00 W/m2
02:39 73 °F 68.6 °F 30.08 in SW 5.8 mph 1.4 mph 86% 0 in 0.00 W/m2
02:44 73.3 °F 68.5 °F 30.07 in SSE 6.9 mph 1.8 mph 85% 0 in 0.00 W/m2
02:49 73.5 °F 68.4 °F 30.08 in SSW 4.6 mph 2.7 mph 84% 0 in 0.00 W/m2
02:54 73.8 °F 68.3 °F 30.08 in SSW 8.1 mph 5.1 mph 83% 0 in 0.00 W/m2
02:59 74 °F 68.2 °F 30.08 in South 8.1 mph 2.6 mph 82% 0 in 0.00 W/m2
03:04 74.2 °F 68.3 °F 30.07 in South 10.4 mph 2.6 mph 82% 0 in 0.00 W/m2
03:09 74.3 °F 68.4 °F 30.07 in SW 8.1 mph 5.7 mph 82% 0 in 0.00 W/m2
03:14 74.4 °F 68.5 °F 30.07 in SSW 6.9 mph 4.6 mph 82% 0 in 0.00 W/m2
03:19 74.4 °F 68.5 °F 30.08 in South 6 mph 3.6 mph 82% 0 in 0.00 W/m2
03:24 74.4 °F 68.2 °F 30.08 in SSW 4.6 mph 3.4 mph 81% 0 in 0.00 W/m2
03:29 74.3 °F 68.4 °F 30.08 in SSW 5.8 mph 1.6 mph 82% 0 in 0.00 W/m2
03:34 74.2 °F 68.3 °F 30.08 in South 6.9 mph 4.8 mph 82% 0 in 0.00 W/m2
03:39 74.2 °F 68.3 °F 30.09 in SSW 3.5 mph 3 mph 82% 0 in 0.00 W/m2
03:44 74.1 °F 68.3 °F 30.09 in SSW 5.8 mph 1.4 mph 82% 0 in 0.00 W/m2
03:49 74 °F 68.5 °F 30.08 in SSW 10.4 mph 4.2 mph 83% 0 in 0.00 W/m2
03:54 74 °F 68.5 °F 30.08 in SSW 2.3 mph 1.1 mph 83% 0 in 0.00 W/m2
03:59 73.8 °F 68.3 °F 30.08 in SSW 3.5 mph 3 mph 83% 0 in 0.00 W/m2
04:04 73.7 °F 68.6 °F 30.08 in SSW 4.6 mph 1.7 mph 84% 0 in 0.00 W/m2
04:09 73.6 °F 68.5 °F 30.09 in SSW 4.6 mph 1.2 mph 84% 0 in 0.00 W/m2
04:14 73.5 °F 68.4 °F 30.08 in SSW 3.5 mph 1.3 mph 84% 0 in 0.00 W/m2
04:19 73.4 °F 68.6 °F 30.08 in SSW 3.5 mph 3.2 mph 85% 0 in 0.00 W/m2
04:24 73.3 °F 68.5 °F 30.08 in SW 6.9 mph 1.6 mph 85% 0 in 0.00 W/m2
04:29 73.3 °F 68.5 °F 30.08 in SSW 4.6 mph 1.4 mph 85% 0 in 0.00 W/m2
04:34 73.4 °F 68.6 °F 30.08 in SSW 3.5 mph   85% 0 in 0.00 W/m2
04:39 73.4 °F 68.3 °F 30.09 in SSW 3 mph 0.9 mph 84% 0 in 0.00 W/m2
04:44 73.4 °F 68.3 °F 30.09 in Calm     84% 0 in 0.00 W/m2
04:49 73.4 °F 67.9 °F 30.09 in SSW 5.8 mph 1 mph 83% 0 in 0.00 W/m2
04:54 73.5 °F 68 °F 30.08 in South 4 mph 4.2 mph 83% 0 in 0.00 W/m2
04:59 73.6 °F 68.1 °F 30.09 in SSW 6.9 mph 3.8 mph 83% 0 in 0.00 W/m2
05:04 73.5 °F 68 °F 30.09 in SSW 3.5 mph 0.7 mph 83% 0 in 0.00 W/m2
05:09 73.5 °F 68 °F 30.09 in SW 5.8 mph 3.4 mph 83% 0 in 0.00 W/m2
05:14 73.4 °F 67.9 °F 30.09 in South 3.5 mph 2.1 mph 83% 0 in 0.00 W/m2
05:19 73.4 °F 67.9 °F 30.09 in SW 3.5 mph 2.1 mph 83% 0 in 0.00 W/m2
05:24 73.3 °F 68.2 °F 30.09 in SSW 8.1 mph 4.7 mph 84% 0 in 0.00 W/m2
05:29 73.3 °F 68.2 °F 30.09 in SSW 6.9 mph 4 mph 84% 0 in 0.00 W/m2
05:35 73.1 °F 68 °F 30.09 in SSW 3.5 mph 1.4 mph 84% 0 in 0.00 W/m2
05:39 73.1 °F 68 °F 30.10 in SW 6.9 mph 2.4 mph 84% 0 in 5.00 W/m2
05:44 73.2 °F 68.1 °F 30.10 in South 4 mph 3.6 mph 84% 0 in 7.00 W/m2
05:49 73.3 °F 68.2 °F 30.10 in SSW 4.6 mph 2.2 mph 84% 0 in 9.00 W/m2
05:54 73.3 °F 68.2 °F 30.10 in WSW 5 mph 0.5 mph 84% 0 in 12.00 W/m2
05:59 73.2 °F 68.4 °F 30.10 in SSW 3.5 mph 0.4 mph 85% 0 in 16.00 W/m2
06:04 73.2 °F 68.4 °F 30.10 in SSW 4.6 mph 1 mph 85% 0 in 18.00 W/m2
06:09 73.1 °F 68.3 °F 30.10 in SSW 3.5 mph 1.2 mph 85% 0 in 21.00 W/m2
06:14 73.1 °F 68.3 °F 30.10 in South 3 mph 1 mph 85% 0 in 23.00 W/m2
06:19 73 °F 68.2 °F 30.10 in South 3.5 mph 0.8 mph 85% 0 in 26.00 W/m2
06:24 72.9 °F 68.5 °F 30.11 in SSW 3.5 mph 2.6 mph 86% 0 in 30.00 W/m2
06:29 72.9 °F 68.5 °F 30.11 in SSW 2.3 mph   86% 0 in 35.00 W/m2
06:34 73 °F 68.6 °F 30.11 in Calm     86% 0 in 46.00 W/m2
06:39 73 °F 68.6 °F 30.11 in Calm     86% 0 in 54.00 W/m2
06:44 73.1 °F 68.7 °F 30.12 in Calm     86% 0 in 62.00 W/m2
06:49 73.3 °F 68.9 °F 30.11 in SSW 1.2 mph   86% 0 in 67.00 W/m2
06:54 73.4 °F 69 °F 30.11 in SSW 2.3 mph 0.3 mph 86% 0 in 76.00 W/m2
06:59 73.4 °F 69 °F 30.11 in SSW 2.3 mph 1.8 mph 86% 0 in 86.00 W/m2
07:04 73.5 °F 69.4 °F 30.11 in South 2.3 mph 2.3 mph 87% 0 in 91.00 W/m2
07:09 73.9 °F 70.1 °F 30.11 in South 3.5 mph 0.1 mph 88% 0 in 202.00 W/m2
07:15 74.5 °F 70.7 °F 30.11 in Calm     88% 0 in 216.00 W/m2
07:19 74.8 °F 70.7 °F 30.11 in Calm     87% 0 in 211.00 W/m2
07:24 75 °F 70.9 °F 30.11 in Calm     87% 0 in 218.00 W/m2
07:29 75 °F 70.5 °F 30.11 in Calm     86% 0 in 251.00 W/m2
07:34 75.1 °F 70.6 °F 30.11 in SSE 2.3 mph 0.6 mph 86% 0 in 272.00 W/m2
07:39 75.1 °F 70.6 °F 30.11 in North 4 mph 0.7 mph 86% 0 in 306.00 W/m2
07:44 75.5 °F 71 °F 30.11 in Calm     86% 0 in 320.00 W/m2
07:49 75.7 °F 70.9 °F 30.12 in SSW 4.6 mph 0.3 mph 85% 0 in 338.00 W/m2
07:54 76.2 °F 71.4 °F 30.12 in South 1 mph   85% 0 in 366.00 W/m2
07:59 76.7 °F 71.5 °F 30.12 in SW 1.2 mph   84% 0 in 417.00 W/m2
08:04 77.3 °F 71.4 °F 30.13 in WSW 1.2 mph 0.3 mph 82% 0 in 385.00 W/m2
08:09 77.5 °F 70.8 °F 30.13 in WSW 4.6 mph 1.8 mph 80% 0 in 239.00 W/m2
08:14 77.5 °F 70.8 °F 30.14 in SSW 3.5 mph 0.9 mph 80% 0 in 257.00 W/m2
08:19 77.7 °F 71.4 °F 30.14 in WSW 4 mph 1.6 mph 81% 0 in 225.00 W/m2
08:24 77.7 °F 71.4 °F 30.14 in SSW 3.5 mph 2.4 mph 81% 0 in 221.00 W/m2
08:29 77.7 °F 71.4 °F 30.14 in SSW 3.5 mph 3.2 mph 81% 0 in 204.00 W/m2
08:34 77.6 °F 71.3 °F 30.14 in WSW 5.8 mph 4.5 mph 81% 0 in 200.00 W/m2
08:39 77.6 °F 71.3 °F 30.14 in SW 3.5 mph 1 mph 81% 0 in 185.00 W/m2
08:44 77.7 °F 71.8 °F 30.13 in South 4.6 mph 2.4 mph 82% 0 in 167.00 W/m2
08:49 77.9 °F 72.3 °F 30.12 in South 3.5 mph 1.1 mph 83% 0 in 469.00 W/m2
08:54 78.6 °F 72.3 °F 30.12 in SSW 8.1 mph 5.2 mph 81% 0 in 415.00 W/m2
08:59 78.9 °F 72.2 °F 30.12 in SSE 5.8 mph 1.4 mph 80% 0 in 396.00 W/m2
09:04 79.3 °F 73 °F 30.12 in SSW 5.8 mph 0.2 mph 81% 0 in 434.00 W/m2
09:09 79.6 °F 72.9 °F 30.12 in SSW 6.9 mph 0.7 mph 80% 0 in 485.00 W/m2
09:14 80 °F 72.5 °F 30.12 in SW 9.2 mph 2.7 mph 78% 0 in 533.00 W/m2
09:19 80.3 °F 73.2 °F 30.12 in South 2 mph 0.4 mph 79% 0 in 529.00 W/m2
09:24 80.7 °F 72.8 °F 30.12 in South 6.9 mph 1.1 mph 77% 0 in 552.00 W/m2
09:29 81 °F 72.7 °F 30.12 in SW 6.9 mph 2.4 mph 76% 0 in 548.00 W/m2
09:34 81.1 °F 72 °F 30.12 in WSW 11 mph 7 mph 74% 0 in 526.00 W/m2
09:39 80.9 °F 72.6 °F 30.12 in SSW 5.8 mph 2.1 mph 76% 0 in 527.00 W/m2
09:44 81.2 °F 72.9 °F 30.12 in SSW 4.6 mph   76% 0 in 533.00 W/m2
09:49 81.8 °F 73.1 °F 30.12 in SW 8.1 mph 2.9 mph 75% 0 in 522.00 W/m2
09:54 82 °F 72.9 °F 30.12 in SW 6.9 mph 0.2 mph 74% 0 in 570.00 W/m2
09:59 82.3 °F 72.8 °F 30.12 in West 5.8 mph 2 mph 73% 0 in 508.00 W/m2
10:04 82.5 °F 72.6 °F 30.12 in South 4 mph 1.7 mph 72% 0 in 464.00 W/m2
10:09 83 °F 73 °F 30.12 in SSW 7 mph 4.3 mph 72% 0 in 517.00 W/m2
10:14 82.9 °F 72.5 °F 30.13 in SW 5.8 mph 3 mph 71% 0 in 534.00 W/m2
10:19 83.1 °F 73.1 °F 30.13 in South 3.5 mph 2.6 mph 72% 0 in 531.00 W/m2
10:24 83.3 °F 72.5 °F 30.13 in SW 3.5 mph 3.4 mph 70% 0 in 601.00 W/m2
10:29 83.6 °F 73.2 °F 30.13 in SSW 3.5 mph 0.1 mph 71% 0 in 573.00 W/m2
10:34 84.1 °F 73.3 °F 30.12 in SW 2.3 mph 1.2 mph 70% 0 in 610.00 W/m2
10:39 84.3 °F 72.1 °F 30.13 in North 8.1 mph 3.4 mph 67% 0 in 601.00 W/m2
10:44 84.3 °F 71.2 °F 30.13 in South 10.4 mph 5.4 mph 65% 0 in 599.00 W/m2
10:49 84.5 °F 72.3 °F 30.13 in West 5.8 mph 3.6 mph 67% 0 in 575.00 W/m2
10:54 84.5 °F 71 °F 30.13 in SSW 11.5 mph 1.4 mph 64% 0 in 555.00 W/m2
10:59 84.6 °F 72.4 °F 30.12 in WSW 2.3 mph   67% 0 in 545.00 W/m2
11:04 84.6 °F 71.5 °F 30.12 in SSW 11.5 mph 4.8 mph 65% 0 in 563.00 W/m2
11:09 84.4 °F 71.8 °F 30.12 in WSW 5.8 mph 3.2 mph 66% 0 in 621.00 W/m2
11:14 84.4 °F 70.9 °F 30.12 in WSW 8.1 mph 5.2 mph 64% 0 in 615.00 W/m2
11:19 84.6 °F 71.5 °F 30.12 in WSW 4 mph 1.2 mph 65% 0 in 605.00 W/m2
11:24 84.8 °F 71.7 °F 30.12 in North 7 mph 3.7 mph 65% 0 in 719.00 W/m2
11:29 84.8 °F 72.2 °F 30.12 in SW 3.5 mph 2.4 mph 66% 0 in 399.00 W/m2
11:34 84.8 °F 72.2 °F 30.11 in SSW 1.2 mph   66% 0 in 378.00 W/m2
11:39 85.1 °F 73.3 °F 30.10 in SSW 5 mph 0.8 mph 68% 0 in 742.00 W/m2
11:44 85.5 °F 72.4 °F 30.10 in South 6.9 mph 2.7 mph 65% 0 in 765.00 W/m2
11:49 85.8 °F 72.2 °F 30.10 in North 6 mph 2.2 mph 64% 0 in 722.00 W/m2
11:54 86 °F 72.4 °F 30.10 in SSE 5.8 mph 3.7 mph 64% 0 in 745.00 W/m2
11:59 86.1 °F 72.5 °F 30.10 in SW 7 mph 1.8 mph 64% 0 in 819.00 W/m2
12:04 86.6 °F 73.9 °F 30.09 in North 3.5 mph 0.7 mph 66% 0 in 867.00 W/m2
12:09 87 °F 72.9 °F 30.09 in South 4.6 mph 2.7 mph 63% 0 in 860.00 W/m2
12:14 87.1 °F 72.5 °F 30.08 in South 10.4 mph 2.2 mph 62% 0 in 853.00 W/m2
12:19 86.9 °F 72.8 °F 30.09 in SSE 6.9 mph 5.1 mph 63% 0 in 487.00 W/m2
12:24 86.5 °F 73.3 °F 30.09 in South 4.6 mph 1.9 mph 65% 0 in 967.00 W/m2
12:29 87 °F 73.3 °F 30.08 in South 8.1 mph 4 mph 64% 0 in 962.00 W/m2
12:34 87.3 °F 73.2 °F 30.08 in SSW 7 mph 2.7 mph 63% 0 in 947.00 W/m2
12:39 87.3 °F 72.7 °F 30.08 in North 8.1 mph 3.2 mph 62% 0 in 1002.00 W/m2
12:44 87.6 °F 73 °F 30.08 in North 11.5 mph 4.8 mph 62% 0 in 1021.00 W/m2
12:49 87.9 °F 73.7 °F 30.07 in SSE 4.6 mph 1.3 mph 63% 0 in 1037.00 W/m2
12:54 88.6 °F 73.9 °F 30.07 in SSW 9.2 mph 3.8 mph 62% 0 in 1020.00 W/m2
12:59 88.4 °F 74.2 °F 30.07 in SSE 10.4 mph 3.9 mph 63% 0 in 1044.00 W/m2
13:04 88.2 °F 74.5 °F 30.07 in SW 8.1 mph 2.9 mph 64% 0 in 1004.00 W/m2
13:09 88.3 °F 74.6 °F 30.07 in SSW 8.1 mph 3.8 mph 64% 0 in 983.00 W/m2
13:14 88.4 °F 73.7 °F 30.07 in South 11.5 mph 4.8 mph 62% 0 in 946.00 W/m2
13:19 88.4 °F 73.7 °F 30.06 in South 8.1 mph 4.2 mph 62% 0 in 923.00 W/m2
13:24 88.6 °F 74.4 °F 30.06 in South 5 mph 4.9 mph 63% 0 in 918.00 W/m2
13:29 88.8 °F 74.1 °F 30.06 in South 8.1 mph 4.4 mph 62% 0 in 902.00 W/m2
13:34 88.7 °F 73.5 °F 30.06 in SSW 12.7 mph 4.1 mph 61% 0 in 884.00 W/m2
13:39 88.9 °F 75.6 °F 30.06 in South 8 mph 3.4 mph 65% 0 in 923.00 W/m2
13:44 89 °F 74.3 °F 30.05 in SSE 5.8 mph 4.3 mph 62% 0 in 949.00 W/m2
13:49 89.3 °F 73.6 °F 30.05 in SSE 11.5 mph 4.8 mph 60% 0 in 969.00 W/m2
13:55 89.5 °F 74.8 °F 30.05 in South 4.6 mph 2 mph 62% 0 in 963.00 W/m2
13:59 89.2 °F 73 °F 30.04 in SSW 9.2 mph 5.3 mph 59% 0 in 281.00 W/m2
14:04 89.1 °F 74.4 °F 30.04 in SW 9.2 mph 0.8 mph 62% 0 in 921.00 W/m2
14:09 89.4 °F 73.2 °F 30.04 in SSE 8.1 mph 4.3 mph 59% 0 in 881.00 W/m2
14:15 89.3 °F 73.6 °F 30.04 in South 6.9 mph 4.7 mph 60% 0 in 912.00 W/m2
14:19 89.3 °F 73.6 °F 30.04 in South 11.5 mph 5.9 mph 60% 0 in 816.00 W/m2
14:25 89.2 °F 73 °F 30.04 in SSW 8.1 mph 4.4 mph 59% 0 in 671.00 W/m2
14:29 88.9 °F 73.7 °F 30.03 in South 11.5 mph 3.9 mph 61% 0 in 624.00 W/m2
14:35 88.6 °F 73.9 °F 30.03 in South 6.9 mph 4.2 mph 62% 0 in 610.00 W/m2
14:39 88.6 °F 73.4 °F 30.03 in South 10.4 mph 3.1 mph 61% 0 in 599.00 W/m2
14:44 88.5 °F 72.8 °F 30.03 in South 11.5 mph 7.6 mph 60% 0 in 626.00 W/m2
14:50 88.6 °F 73.4 °F 30.03 in SW 10 mph 8 mph 61% 0 in 707.00 W/m2
14:54 89 °F 74.3 °F 30.03 in SSE 9 mph 5.1 mph 62% 0 in 722.00 W/m2
14:59 89.3 °F 74.1 °F 30.03 in SSW 8.1 mph 2.4 mph 61% 0 in 686.00 W/m2
15:04 89.5 °F 73.3 °F 30.02 in South 10.4 mph 7.1 mph 59% 0 in 694.00 W/m2
15:10 89.3 °F 72.6 °F 30.02 in South 10.4 mph 6.6 mph 58% 0 in 687.00 W/m2
15:14 89.2 °F 72 °F 30.02 in SSW 9.2 mph 7.1 mph 57% 0 in 657.00 W/m2
15:19 89.3 °F 73.6 °F 30.02 in SSW 9.2 mph 3.2 mph 60% 0 in 687.00 W/m2
15:24 89.6 °F 72.9 °F 30.02 in South 7 mph 2.3 mph 58% 0 in 629.00 W/m2
15:29 89.6 °F 71.8 °F 30.02 in SW 13.8 mph 6.5 mph 56% 0 in 606.00 W/m2
15:34 89.5 °F 71.2 °F 30.01 in SSW 11.5 mph 9 mph 55% 0 in 605.00 W/m2
15:39 89.3 °F 70.5 °F 30.01 in South 13.8 mph 9.7 mph 54% 0 in 617.00 W/m2
15:44 89.5 °F 71.2 °F 30.01 in SSE 11.5 mph 8.2 mph 55% 0 in 629.00 W/m2
15:50 89.7 °F 71.4 °F 30.01 in South 8.1 mph 4.3 mph 55% 0 in 654.00 W/m2
15:55 89.9 °F 70.5 °F 30.01 in SSW 11.5 mph 6.5 mph 53% 0 in 621.00 W/m2
15:59 90 °F 71.7 °F 30.01 in South 13.8 mph 9.9 mph 55% 0 in 635.00 W/m2
16:04 90.2 °F 71.3 °F 30.01 in South 8.1 mph 7.3 mph 54% 0 in 656.00 W/m2
16:09 90.4 °F 70.9 °F 30.00 in South 11.5 mph 6.6 mph 53% 0 in 673.00 W/m2
16:14 90.7 °F 71.2 °F 30.01 in SSE 11 mph 6.4 mph 53% 0 in 710.00 W/m2
16:20 90.6 °F 70.6 °F 30.01 in South 9.2 mph 4.1 mph 52% 0 in 691.00 W/m2
16:25 90.8 °F 70.7 °F 30.01 in SSW 9.2 mph 5.7 mph 52% 0 in 624.00 W/m2
16:29 90.8 °F 70.7 °F 30.02 in SW 10 mph 5.5 mph 52% 0 in 694.00 W/m2
16:35 91.1 °F 70.5 °F 30.01 in South 10.4 mph 5.7 mph 51% 0 in 585.00 W/m2
16:39 91.1 °F 70.5 °F 30.01 in South 11.5 mph 7.1 mph 51% 0 in 715.00 W/m2
16:44 90.9 °F 69.7 °F 30.02 in SSW 10.4 mph 6.9 mph 50% 0 in 694.00 W/m2
16:49 91 °F 69.8 °F 30.02 in SSW 10.4 mph 7.4 mph 50% 0 in 612.00 W/m2
16:54 90.9 °F 69.7 °F 30.02 in SSW 16.1 mph 7.4 mph 50% 0 in 232.00 W/m2
16:59 90.6 °F 68.8 °F 30.02 in South 10.4 mph 4.7 mph 49% 0 in 410.00 W/m2
17:04 90.4 °F 69.8 °F 30.02 in South 11.5 mph 3.1 mph 51% 0 in 408.00 W/m2
17:10 90 °F 68.3 °F 30.02 in SW 10.4 mph 4.2 mph 49% 0 in 234.00 W/m2
17:14 89.9 °F 69.3 °F 30.02 in SSE 11.5 mph 5.6 mph 51% 0 in 494.00 W/m2
17:19 90.1 °F 69 °F 30.02 in South 13.8 mph 6.7 mph 50% 0 in 462.00 W/m2
17:24 90.2 °F 68.5 °F 30.01 in South 9.2 mph 5.6 mph 49% 0 in 462.00 W/m2
17:29 90.4 °F 69.8 °F 30.01 in SSE 12.7 mph 4.6 mph 51% 0 in 494.00 W/m2
17:35 90.6 °F 70.6 °F 30.01 in SSW 9.2 mph 3.9 mph 52% 0 in 478.00 W/m2
17:39 90.4 °F 69.8 °F 30.01 in SSW 11.5 mph 4.3 mph 51% 0 in 410.00 W/m2
17:45 90.4 °F 70.4 °F 30.00 in SW 8.1 mph 3.9 mph 52% 0 in 264.00 W/m2
17:49 90.3 °F 69.1 °F 30.00 in SSW 7 mph 4.7 mph 50% 0 in 292.00 W/m2
17:54 90.2 °F 70.2 °F 30.00 in SSE 8 mph 3 mph 52% 0 in 250.00 W/m2
17:59 89.8 °F 68.7 °F 30.00 in South 6.9 mph 4.8 mph 50% 0 in 197.00 W/m2
18:04 89.3 °F 68.2 °F 30.00 in South 9.2 mph 5.2 mph 50% 0 in 158.00 W/m2
18:09 89 °F 68.5 °F 30.01 in WSW 4.6 mph 0.9 mph 51% 0 in 141.00 W/m2
18:14 88.8 °F 68.3 °F 30.01 in SSW 6.9 mph 5.2 mph 51% 0 in 127.00 W/m2
18:19 88.6 °F 68.2 °F 30.02 in WSW 10 mph 4.8 mph 51% 0 in 118.00 W/m2
18:24 88.5 °F 68.1 °F 30.02 in SSW 5.8 mph 3.8 mph 51% 0 in 109.00 W/m2
18:29 88.3 °F 68.4 °F 30.02 in WSW 4.6 mph 3.3 mph 52% 0 in 107.00 W/m2
18:34 88.1 °F 68.3 °F 30.01 in WSW 4.6 mph 1.8 mph 52% 0 in 104.00 W/m2
18:40 88 °F 68.7 °F 30.02 in SSW 4 mph 0.4 mph 53% 0 in 100.00 W/m2
18:44 87.9 °F 68.6 °F 30.02 in SW 2.3 mph 0.9 mph 53% 0 in 97.00 W/m2
18:49 87.7 °F 68.4 °F 30.02 in SSW 4.6 mph 2 mph 53% 0 in 95.00 W/m2
18:55 87.6 °F 67.8 °F 30.02 in SW 4.6 mph 2.7 mph 52% 0 in 90.00 W/m2
18:59 87.4 °F 68.2 °F 30.02 in WSW 3.5 mph 2.6 mph 53% 0 in 83.00 W/m2
19:04 87.2 °F 68.5 °F 30.02 in WSW 4 mph 2.3 mph 54% 0 in 77.00 W/m2
19:09 87 °F 68.3 °F 30.02 in SSW 5 mph 3.1 mph 54% 0 in 72.00 W/m2
19:14 86.8 °F 68.7 °F 30.02 in SW 3.5 mph 2.5 mph 55% 0 in 65.00 W/m2
19:19 86.6 °F 69 °F 30.02 in WSW 4.6 mph 3.8 mph 56% 0 in 62.00 W/m2
19:24 86.3 °F 68.8 °F 30.02 in WSW 4.6 mph 1.6 mph 56% 0 in 56.00 W/m2
19:29 86.1 °F 69.1 °F 30.02 in SW 3.5 mph 2.7 mph 57% 0 in 53.00 W/m2
19:34 85.8 °F 68.8 °F 30.02 in WSW 4.6 mph 2.7 mph 57% 0 in 47.00 W/m2
19:39 85.6 °F 69.1 °F 30.03 in South 3.5 mph 2.2 mph 58% 0 in 44.00 W/m2
19:44 85.4 °F 68.9 °F 30.03 in SW 4.6 mph 1.3 mph 58% 0 in 40.00 W/m2
19:49 85.2 °F 68.8 °F 30.03 in SW 3.5 mph 2.7 mph 58% 0 in 37.00 W/m2
19:54 85.2 °F 68.8 °F 30.03 in WSW 4.6 mph 2.1 mph 58% 0 in 33.00 W/m2
19:59 85.2 °F 68.8 °F 30.04 in WSW 3.5 mph 3 mph 58% 0 in 28.00 W/m2
20:04 85 °F 68.6 °F 30.03 in WSW 5.8 mph 2.1 mph 58% 0 in 26.00 W/m2
20:09 84.9 °F 69 °F 30.03 in WSW 3 mph 1.5 mph 59% 0 in 21.00 W/m2
20:14 84.7 °F 68.8 °F 30.04 in SW 4.6 mph 2 mph 59% 0 in 16.00 W/m2
20:19 84.5 °F 68.6 °F 30.04 in WSW 2 mph 0.3 mph 59% 0 in 11.00 W/m2
20:24 84.3 °F 68.9 °F 30.03 in WSW 2 mph 0.1 mph 60% 0 in 7.00 W/m2
20:29 84 °F 68.6 °F 30.03 in SW 3.5 mph 1.6 mph 60% 0 in 0.00 W/m2
20:34 83.8 °F 68.9 °F 30.03 in SW 3.5 mph 2.3 mph 61% 0 in 5.00 W/m2
20:39 83.6 °F 68.7 °F 30.03 in SW 3 mph 1.8 mph 61% 0 in 0.00 W/m2
20:44 83.5 °F 68.6 °F 30.03 in SSW 5.8 mph 3.7 mph 61% 0 in 0.00 W/m2
20:49 83.5 °F 68.6 °F 30.03 in WSW 4.6 mph 3 mph 61% 0 in 0.00 W/m2
20:54 83.4 °F 69 °F 30.04 in WSW 3.5 mph 2.5 mph 62% 0 in 0.00 W/m2
20:59 83.2 °F 69.3 °F 30.03 in WSW 2.3 mph   63% 0 in 0.00 W/m2
21:04 82.9 °F 69.5 °F 30.04 in WSW 2.3 mph 1.2 mph 64% 0 in 0.00 W/m2
21:09 82.7 °F 69.7 °F 30.04 in West 3.5 mph 0.7 mph 65% 0 in 0.00 W/m2
21:14 82.4 °F 69.9 °F 30.04 in West 2.3 mph 0.2 mph 66% 0 in 0.00 W/m2
21:19 82.1 °F 70.1 °F 30.04 in West 2 mph 0.1 mph 67% 0 in 0.00 W/m2
21:24 81.8 °F 69.8 °F 30.04 in Calm   0.1 mph 67% 0 in 0.00 W/m2
21:29 81.6 °F 70 °F 30.04 in West 3.5 mph   68% 0 in 0.00 W/m2
21:34 81.5 °F 70.3 °F 30.04 in West 1.2 mph 0.1 mph 69% 0 in 0.00 W/m2
21:39 81.3 °F 70.2 °F 30.04 in West 1.2 mph 0.1 mph 69% 0 in 0.00 W/m2
21:44 81.1 °F 70.4 °F 30.04 in West 1.2 mph 0.2 mph 70% 0 in 0.00 W/m2
21:49 80.9 °F 70.6 °F 30.04 in West 3.5 mph 1.3 mph 71% 0 in 0.00 W/m2
21:54 80.7 °F 70.4 °F 30.04 in WSW 3.5 mph 1.8 mph 71% 0 in 0.00 W/m2
21:59 80.7 °F 70.4 °F 30.04 in West 3.5 mph 0.2 mph 71% 0 in 0.00 W/m2
22:04 80.6 °F 70.3 °F 30.04 in WNW 3.5 mph 0.4 mph 71% 0 in 0.00 W/m2
22:09 80.5 °F 70.2 °F 30.04 in West 2.3 mph 0.7 mph 71% 0 in 0.00 W/m2
22:14 80.3 °F 70 °F 30.05 in West 2.3 mph   71% 0 in 0.00 W/m2
22:19 80.3 °F 70.4 °F 30.05 in West 3.5 mph 0.4 mph 72% 0 in 0.00 W/m2
22:24 80.1 °F 70.3 °F 30.05 in West 3.5 mph 2 mph 72% 0 in 0.00 W/m2
22:29 80.2 °F 69.9 °F 30.05 in West 4.6 mph 0.2 mph 71% 0 in 0.00 W/m2
22:34 80.1 °F 69.8 °F 30.05 in WSW 3.5 mph 0.6 mph 71% 0 in 0.00 W/m2
22:39 80 °F 69.7 °F 30.05 in West 1.2 mph 0.1 mph 71% 0 in 0.00 W/m2
22:44 79.9 °F 69.7 °F 30.06 in West 2.3 mph   71% 0 in 0.00 W/m2
22:49 79.8 °F 70 °F 30.06 in West 1.2 mph   72% 0 in 0.00 W/m2
22:54 79.5 °F 69.7 °F 30.06 in Calm     72% 0 in 0.00 W/m2
22:59 79.3 °F 69.5 °F 30.06 in West 2.3 mph   72% 0 in 0.00 W/m2
23:04 79.1 °F 69.3 °F 30.06 in Calm     72% 0 in 0.00 W/m2
23:09 79 °F 69.6 °F 30.06 in Calm   0.4 mph 73% 0 in 0.00 W/m2
23:14 78.9 °F 69.5 °F 30.06 in Calm     73% 0 in 0.00 W/m2
23:19 78.7 °F 69.3 °F 30.06 in Calm     73% 0 in 0.00 W/m2
23:24 78.4 °F 69.4 °F 30.07 in Calm     74% 0 in 0.00 W/m2
23:29 77.9 °F 69.7 °F 30.07 in Calm     76% 0 in 0.00 W/m2
23:34 77.3 °F 69.9 °F 30.07 in Calm     78% 0 in 0.00 W/m2
23:39 76.6 °F 69.6 °F 30.07 in Calm     79% 0 in 0.00 W/m2
23:44 76 °F 69.4 °F 30.07 in Calm     80% 0 in 0.00 W/m2
23:49 75.8 °F 69.9 °F 30.07 in Calm   0.1 mph 82% 0 in 0.00 W/m2
23:54 75.3 °F 69.4 °F 30.07 in Calm     82% 0 in 0.00 W/m2
23:59 74.9 °F 69.4 °F 30.07 in Calm     83% 0 in 0.00 W/m2
Bourbonnais, Illinois, USA
Compliments of Weather Underground - 4 mb